Content
SEND FEEDBACK

Daily
Averages
Monthly
Summary
United States of America

CONWAY, SOUTH CAROLINA


Home > North America > United States > South Carolina
Elevation: 22 feet     Latitude: 33 50N     Longitude: 079 03W

WEATHER
 
SELECT A DAY
Number of Records: 129,660;   Date Range: 12/8/08 - 7/19/14
 
SHARE

PRINT THIS DATA

[ ← Previous Day ]
WEATHER ALMANAC - JANUARY 23, 2013
[ Next Day → ]
[ °C ]   °F
Weather ElementAverageHighLow
Temperature35.5 °F46.4 °F (2:35 pm)28.4 °F (12:35 am)
Dewpoint20.6 °F32 °F (10:55 pm)10.4 °F (11:55 am)
Humidity59.9 %100 % (12:35 am)27 % (12:55 pm)
Barometer30.29 in30.40 in (9:55 am)30.16 in (11:35 pm)
Wind Speed2.4 mph6.9 mph (9:35 am)
Weather ElementAverage
Visibility9.4 mi
Wind DirectionENE (61.3 °)

Weather ElementTotal
Precipitation---
Heating Degree Days27.6 (Base 65)
Averaged from 69 records on January 23, 2013
WEATHER CONDITIONS BREAKOUT
WIND DIRECTION BREAKOUT
WEATHER BY HOUR - JANUARY 23, 2013
[ °C ]   °F
Local TimeTemperatureDewpointHumidityBarometerVisibilityWind DirectionWind SpeedGust SpeedPrecipitationEventsConditions
12:35 AM28.4 °F28.4 °F100 %30.26 in10.0 miCalmClear
1:15 AM28.4 °F28.4 °F100 %30.26 in10.0 miCalmClear
1:35 AM28.4 °F28.4 °F100 %30.26 in10.0 miCalmClear
1:55 AM28.4 °F28.4 °F100 %30.27 in10.0 miCalmClear
2:15 AM28.4 °F28.4 °F100 %30.27 in10.0 miCalmClear
2:35 AM28.4 °F28.4 °F100 %30.28 in10.0 miCalmClear
2:55 AM28.4 °F28.4 °F100 %30.28 in10.0 miCalmClear
3:15 AM28.4 °F26.6 °F93 %30.28 in10.0 miCalmClear
3:35 AM28.4 °F28.4 °F100 %30.29 in10.0 miCalmClear
3:55 AM30.2 °F23.0 °F75 %30.29 in10.0 miNNE (20°)3.5 mphClear
4:15 AM30.2 °F23.0 °F75 %30.29 in10.0 miNNE (20°)5.8 mphClear
4:35 AM30.2 °F21.2 °F69 %30.30 in10.0 miNorth (10°)4.6 mphClear
4:55 AM30.2 °F17.6 °F60 %30.30 in10.0 miNNE (20°)4.6 mphClear
5:15 AM28.4 °F17.6 °F64 %30.30 in10.0 miNNE (30°)4.6 mphClear
5:35 AM28.4 °F17.6 °F64 %30.31 in10.0 miNNE (20°)3.5 mphClear
5:55 AM28.4 °F15.8 °F59 %30.32 in10.0 miCalmClear
6:15 AM28.4 °F14.0 °F55 %30.33 in10.0 miNorth (10°)3.5 mphClear
6:35 AM28.4 °F14.0 °F55 %30.34 in10.0 miNNE (20°)4.6 mphClear
6:55 AM28.4 °F14.0 °F55 %30.35 in10.0 miNNE (20°)3.5 mphClear
7:15 AM28.4 °F14.0 °F55 %30.35 in10.0 miCalmClear
7:35 AM28.4 °F14.0 °F55 %30.36 in10.0 miCalmClear
7:55 AM28.4 °F15.8 °F59 %30.36 in10.0 miNNE (30°)4.6 mphClear
8:15 AM30.2 °F14.0 °F51 %30.36 in10.0 miNE (40°)3.5 mphClear
8:55 AM32.0 °F14.0 °F48 %30.38 in10.0 miNE (50°)4.6 mphClear
9:15 AM32.0 °F14.0 °F48 %30.39 in10.0 miNE (50°)5.8 mphClear
9:35 AM33.8 °F14.0 °F44 %30.39 in10.0 miNNE (20°)6.9 mphClear
9:55 AM33.8 °F12.2 °F41 %30.40 in10.0 miNE (50°)5.8 mphClear
10:15 AM35.6 °F12.2 °F38 %30.40 in10.0 miNE (40°)5.8 mphClear
10:35 AM35.6 °F12.2 °F38 %30.39 in7.0 miCalmClear
10:55 AM37.4 °F12.2 °F36 %30.39 in7.0 miCalmClear
11:15 AM37.4 °F12.2 °F36 %30.38 in10.0 miCalmClear
11:35 AM41.0 °F12.2 °F31 %30.38 in10.0 miCalmClear
11:55 AM41.0 °F10.4 °F29 %30.36 in7.0 miESE (120°)3.5 mphClear
12:15 PM42.8 °F12.2 °F29 %30.36 in7.0 miCalmClear
12:35 PM42.8 °F12.2 °F29 %30.35 in10.0 miWest (270°)3.5 mphClear
12:55 PM42.8 °F10.4 °F27 %30.33 in10.0 miSW (230°)5.8 mphClear
1:15 PM44.6 °F12.2 °F27 %30.31 in10.0 miSSW (200°)5.8 mphClear
1:35 PM44.6 °F12.2 °F27 %30.30 in10.0 miWSW (250°)3.5 mphClear
1:55 PM44.6 °F14.0 °F29 %30.29 in10.0 miSW (220°)6.9 mphClear
2:15 PM44.6 °F14.0 °F29 %30.28 in7.0 miSW (220°)3.5 mphClear
2:35 PM46.4 °F15.8 °F29 %30.27 in7.0 miCalmClear
2:55 PM46.4 °F15.8 °F29 %30.26 in5.0 miSSW (200°)5.8 mphHaze
3:15 PM46.4 °F17.6 °F32 %30.26 in7.0 miCalmClear
3:35 PM46.4 °F17.6 °F32 %30.26 in7.0 miWSW (240°)4.6 mphClear
3:55 PM46.4 °F17.6 °F32 %30.26 in7.0 miCalmClear
4:15 PM46.4 °F19.4 °F34 %30.26 in7.0 miSW (220°)5.8 mphClear
4:35 PM46.4 °F19.4 °F34 %30.26 in5.0 miWSW (240°)3.5 mphHaze
4:55 PM46.4 °F19.4 °F34 %30.25 in10.0 miSW (220°)3.5 mphClear
5:15 PM44.6 °F21.2 °F39 %30.26 in7.0 miCalmClear
5:35 PM42.8 °F21.2 °F42 %30.25 in10.0 miSSE (150°)5.8 mphClear
5:55 PM41.0 °F23.0 °F49 %30.25 in10.0 miCalmClear
6:15 PM39.2 °F23.0 °F52 %30.25 in10.0 miCalmClear
6:35 PM37.4 °F26.6 °F65 %30.25 in10.0 miCalmClear
6:55 PM35.6 °F24.8 °F65 %30.25 in10.0 miCalmClear
7:15 PM35.6 °F24.8 °F65 %30.25 in10.0 miCalmClear
7:35 PM33.8 °F26.6 °F75 %30.24 in10.0 miCalmClear
7:55 PM33.8 °F28.4 °F81 %30.23 in10.0 miCalmClear
8:15 PM33.8 °F28.4 °F81 %30.23 in10.0 miCalmClear
8:35 PM32.0 °F28.4 °F87 %30.22 in10.0 miCalmClear
8:55 PM32.0 °F28.4 °F87 %30.22 in10.0 miCalmClear
9:15 PM32.0 °F28.4 °F87 %30.21 in10.0 miCalmClear
9:35 PM32.0 °F28.4 °F87 %30.21 in10.0 miCalmClear
9:55 PM32.0 °F28.4 °F87 %30.20 in10.0 miCalmClear
10:15 PM32.0 °F28.4 °F87 %30.20 in10.0 miCalmClear
10:35 PM32.0 °F30.2 °F93 %30.19 in10.0 miSouth (190°)3.5 mphClear
10:55 PM37.4 °F32.0 °F81 %30.18 in10.0 miSSW (200°)4.6 mphClear
11:15 PM37.4 °F32.0 °F81 %30.17 in10.0 miSSW (200°)4.6 mphClear
11:35 PM37.4 °F32.0 °F81 %30.16 in10.0 miSSW (200°)6.9 mphClear
11:55 PM39.2 °F32.0 °F75 %30.16 in10.0 miSSW (210°)6.9 mphClear
Hourly data recorded from KHYW, located miles away from Conway, South Carolina







STORIES FROM OUR PARTNERS